Location: Ferintosh
(52.7647°N, 112.9692°W)
Time: 18:38:35
(UTC+00:00)

S-56A Canister/Altair - Pass Details

Date: 26 May 2024
Orbit: 637 x 2489 km, 38.9° (Epoch: 22 June)

Event Time Altitude Azimuth Distance (km) Brightness Sun altitude
Rises 12:43:41 0° 226° (SW) 6,079 11.5 10.3°
Reaches altitude 10° 12:48:26 10° 218° (SW) 4,934 11.2 10.9°
Maximum altitude 12:59:37 32° 163° (SSE) 2,962 10.6 12.5°
Drops below altitude 10° 13:08:10 10° 106° (ESE) 3,747 12.2 13.7°
Sets 13:11:13 0° 96° (E) 4,472 12.8 14.2°
